[[{"header":{"parameterUnit":"m.s-1","parameterCategory":1,"la1":30.2991,"la2":30.254,"lo1":-89.0895,"lo2":-89.0444,"dy":0.0017,"dx":0.0017,"nx":28,"ny":28,"refTime":"2025-09-05T21:00:00:Z","depth":0,"parameterNumber":2,"parameterNumberName":"U-component_of_WINDS"},"data":[0,0,0,0,0,0,0,0,0,0,0,0,0,0,0,0,0,0,0,0,0,0,0,0,0,0,0,0,0,0,0,0,0,0,0,0,0,0,0,0,0,0,0,0,0,0,0,0,0,0,0,0,0,0,0,0,0,0,-0.6956,-0.6957,0,-0.7063,-0.7064,-0.7065,-0.7072,-0.7071,-0.707,-0.7069,-0.718,-0.7184,-0.7188,0,0,0,0,0,0,0,0,0,0,0,0,0,-0.6757,-0.676,-0.6956,-0.6957,-0.6958,-0.7063,-0.7064,-0.7066,-0.7073,-0.7071,-0.707,-0.7068,-0.7178,-0.7183,-0.7188,0,0,0,0,0,0,0,0,0,0,0,0,0,-0.6852,-0.6762,-0.6955,-0.6974,-0.6977,-0.7062,-0.7064,-0.7066,-0.7073,-0.7071,-0.7069,-0.7068,-0.7177,-0.7183,-0.7189,-0.7263,0,0,-0.7207,-0.721,0,0,0,0,0,0,0,0,-0.6846,-0.6859,-0.697,-0.6973,-0.6976,-0.7052,-0.7035,-0.7132,-0.7073,-0.7037,-0.7069,-0.7067,-0.7139,-0.7148,-0.7172,-0.7268,-0.7273,-0.7208,-0.7212,-0.7214,-0.7216,0,0,0,0,0,0,0,-0.684,-0.6854,-0.6998,-0.6972,-0.6976,-0.6977,-0.6989,-0.7053,-0.7097,-0.704,-0.704,-0.7053,-0.714,-0.7166,-0.7175,-0.7274,-0.7208,-0.7213,-0.7217,-0.7219,-0.7435,-0.7437,0,0,0,0,0,0,-0.6829,-0.6849,-0.6995,-0.7001,-0.6905,-0.6983,-0.6995,-0.703,-0.7096,-0.7104,-0.7054,-0.7053,-0.7157,-0.7168,-0.7179,-0.727,-0.7214,-0.722,-0.7223,-0.7433,-0.7436,-0.7438,0,0,0,0,0,0,-0.6825,-0.6842,-0.699,-0.6925,-0.6944,-0.6988,-0.7027,-0.7033,-0.7059,-0.7107,-0.7115,-0.7073,-0.7156,-0.717,-0.7241,-0.7273,-0.7223,-0.7228,-0.7431,-0.7434,-0.7437,-0.7452,0,0,0,0,0,0,-0.6819,-0.6841,-0.6869,-0.6926,-0.6948,-0.7052,-0.7029,-0.7036,-0.7069,-0.7068,-0.7127,-0.7134,-0.7155,-0.7232,-0.7248,-0.7281,-0.7233,-0.7428,-0.7432,-0.7436,-0.7449,-0.7455,-0.746,0,0,0,0,0,-0.6812,-0.687,-0.6871,-0.6888,-0.6985,-0.7053,-0.7066,-0.7089,-0.7072,-0.7101,-0.7132,-0.7133,-0.7267,-0.724,-0.7257,-0.7292,-0.7426,-0.7431,-0.7435,-0.7446,-0.7454,-0.746,0,0,0,0,0,0,-0.6817,-0.6878,-0.688,-0.6957,-0.7,-0.7054,-0.7092,-0.7096,-0.7145,-0.7142,-0.7168,-0.7181,-0.7252,-0.7279,-0.7247,-0.7367,-0.7345,-0.7353,-0.7347,-0.7355,-0.736,-0.7353,-0.7238,0,0,0,0,0,-0.6826,-0.6877,-0.6928,-0.6991,-0.7013,-0.7048,-0.7079,-0.7093,-0.7139,-0.7157,-0.7193,-0.7237,-0.7289,-0.7323,-0.7374,-0.7452,-0.7465,-0.7485,-0.7491,-0.7495,-0.7503,-0.7545,-0.7555,-0.7453,-0.7453,-0.7453,0,0,-0.6848,-0.6887,-0.6918,-0.6993,-0.7028,-0.708,-0.7064,-0.712,-0.7159,-0.7165,-0.7235,-0.7263,-0.7314,-0.7389,-0.7424,-0.7414,-0.7533,-0.7501,-0.7505,-0.751,-0.7551,-0.7561,-0.7569,-0.7456,-0.7456,-0.7455,0,0,-0.6913,-0.6948,-0.7005,-0.704,-0.7092,-0.7115,-0.7129,-0.7183,-0.7201,-0.7271,-0.7277,-0.7324,-0.7413,-0.7449,-0.7479,-0.7556,-0.7559,-0.7572,-0.7603,-0.7645,-0.7653,-0.766,-0.7688,-0.7697,-0.7579,-0.7579,-0.7579,0,-0.6933,-0.7012,-0.7033,-0.7089,-0.7122,-0.7129,-0.7187,-0.722,-0.7286,-0.7309,-0.7296,-0.7408,-0.7443,-0.7526,-0.7545,-0.7569,-0.7585,-0.7566,-0.765,-0.7657,-0.7664,-0.7691,-0.7701,-0.758,-0.758,-0.758,-0.758,0,-0.7034,-0.7088,-0.7127,-0.7191,-0.7228,-0.7284,-0.7314,-0.7349,-0.7359,-0.7383,-0.7454,-0.7496,-0.7555,-0.7575,-0.7586,-0.766,-0.7652,-0.7644,-0.7623,-0.7675,-0.7701,-0.7711,-0.7582,-0.7582,-0.7581,-0.7581,0,0,-0.7107,-0.718,-0.7195,-0.7223,-0.7281,-0.7324,-0.7379,-0.7437,-0.7466,-0.7511,-0.7559,-0.7634,-0.7627,-0.7661,-0.7675,-0.7711,-0.7769,-0.7699,-0.7701,-0.7711,-0.7853,-0.7859,-0.7871,-0.777,-0.7773,-0.7774,-0.7849,0,-0.7179,-0.728,-0.73,-0.7387,-0.7437,-0.7444,-0.7493,-0.7533,-0.7557,-0.7603,-0.7629,-0.7682,-0.7668,-0.7689,-0.7725,-0.7754,-0.7798,-0.7749,-0.7815,-0.7818,-0.7803,-0.7884,-0.7891,-0.7959,-0.7859,-0.7861,-0.7862,0,-0.7278,-0.7324,-0.7416,-0.7466,-0.7488,-0.7532,-0.7586,-0.7629,-0.7675,-0.769,-0.7727,-0.7736,-0.7795,-0.7769,-0.7849,-0.7815,-0.7843,-0.7862,-0.7865,-0.7873,-0.7844,-0.7894,-0.7982,-0.7992,-0.7878,-0.7877,-0.7875,0,-0.7322,-0.7408,-0.7474,-0.7498,-0.7558,-0.7589,-0.7615,-0.7659,-0.7692,-0.7738,-0.776,-0.7813,-0.7842,-0.7882,-0.7906,-0.7885,-0.7984,-0.796,-0.7998,-0.7997,-0.802,-0.8018,-0.8113,-0.8036,-0.8036,-0.8036,-0.8036,0,-0.7402,-0.7457,-0.7495,-0.7536,-0.7598,-0.762,-0.7682,-0.7708,-0.7746,-0.7792,-0.7801,-0.7843,-0.7871,-0.7918,-0.7936,-0.8,-0.8013,-0.8026,-0.8031,-0.8026,-0.8024,-0.8045,-0.8041,-0.8039,-0.8038,-0.8038,-0.8037,0,-0.7463,-0.749,-0.7562,-0.7613,-0.7627,-0.767,-0.7714,-0.7753,-0.7776,-0.7834,-0.7848,-0.7885,-0.794,-0.7966,-0.8035,-0.8047,-0.8119,-0.812,-0.8104,-0.8106,-0.8142,-0.8138,-0.8254,-0.8271,-0.8182,-0.8183,-0.8184,0,-0.7512,-0.7555,-0.761,-0.7641,-0.7668,-0.7718,-0.7751,-0.7774,-0.7808,-0.7862,-0.7895,-0.795,-0.7996,-0.8083,-0.8115,-0.8167,-0.817,-0.8207,-0.8178,-0.8171,-0.8171,-0.8168,-0.8172,-0.8213,-0.8213,-0.8214,-0.8215,0,-0.7597,-0.7608,-0.7655,-0.7707,-0.7746,-0.7788,-0.783,-0.7854,-0.7884,-0.7922,-0.7978,-0.8013,-0.8082,-0.8136,-0.819,-0.8217,-0.8221,-0.8223,-0.8235,-0.8231,-0.822,-0.8226,-0.8119,-0.8221,-0.822,-0.822,-0.822,-0.8219,-0.7654,-0.7692,-0.7737,-0.7789,-0.7822,-0.786,-0.79,-0.7927,-0.7974,-0.8032,-0.8042,-0.8102,-0.8145,-0.8218,-0.8246,-0.8292,-0.8284,-0.8301,-0.8305,-0.8309,-0.8311,-0.8211,-0.8302,-0.8302,-0.8302,-0.8302,-0.8302,0,-0.774,-0.7768,-0.7816,-0.7873,-0.7914,-0.7913,-0.7958,-0.7992,-0.8044,-0.8084,-0.8128,-0.8192,-0.8244,-0.828,-0.8333,-0.8363,-0.8366,-0.8376,-0.8375,-0.8381,-0.8315,-0.83,-0.8373,-0.8373,-0.8373,-0.8373,-0.8373,-0.8373,-0.7789,-0.7854,-0.787,-0.795,-0.7978,-0.8036,-0.8062,-0.8097,-0.8129,-0.82,-0.8243,-0.8266,-0.8304,-0.8359,-0.8407,-0.8416,-0.8435,-0.8446,-0.8455,-0.8393,-0.8386,-0.8379,-0.8364,-0.845,-0.845,-0.8517,-0.8517,-0.8518]},{"header":{"parameterUnit":"m.s-1","parameterCategory":1,"la1":30.2991,"la2":30.254,"lo1":-89.0895,"lo2":-89.0444,"dy":0.0017,"dx":0.0017,"nx":28,"ny":28,"refTime":"2025-09-05T21:00:00:Z","depth":0,"parameterNumber":3,"parameterNumberName":"V-component_of_WINDS"},"data":[0,0,0,0,0,0,0,0,0,0,0,0,0,0,0,0,0,0,0,0,0,0,0,0,0,0,0,0,0,0,0,0,0,0,0,0,0,0,0,0,0,0,0,0,0,0,0,0,0,0,0,0,0,0,0,0,0,0,-5.7048,-5.7049,0,-5.7151,-5.7152,-5.7153,-5.7085,-5.7082,-5.7079,-5.7076,-5.7175,-5.718,-5.7186,0,0,0,0,0,0,0,0,0,0,0,0,0,-5.6784,-5.679,-5.7048,-5.7049,-5.705,-5.7151,-5.7152,-5.7153,-5.7085,-5.7082,-5.7078,-5.7074,-5.7173,-5.718,-5.7186,0,0,0,0,0,0,0,0,0,0,0,0,0,-5.6894,-5.6791,-5.7047,-5.7028,-5.7028,-5.715,-5.7152,-5.7154,-5.7086,-5.7081,-5.7077,-5.7072,-5.7171,-5.7179,-5.7187,-5.7332,0,0,-5.7213,-5.7216,0,0,0,0,0,0,0,0,-5.6888,-5.6904,-5.703,-5.703,-5.7029,-5.71,-5.7096,-5.7214,-5.7087,-5.7064,-5.7075,-5.707,-5.7154,-5.7163,-5.7192,-5.7337,-5.7341,-5.7214,-5.7219,-5.7222,-5.7225,0,0,0,0,0,0,0,-5.688,-5.6899,-5.7088,-5.7032,-5.7032,-5.7012,-5.7023,-5.7118,-5.7133,-5.7065,-5.7061,-5.7074,-5.7152,-5.7185,-5.7194,-5.7343,-5.7213,-5.7221,-5.7226,-5.7229,-5.761,-5.7615,0,0,0,0,0,0,-5.6875,-5.6893,-5.7085,-5.7091,-5.6946,-5.7021,-5.7033,-5.7082,-5.7132,-5.7136,-5.7078,-5.7071,-5.7173,-5.7185,-5.7197,-5.737,-5.7222,-5.723,-5.7235,-5.7605,-5.7611,-5.7617,0,0,0,0,0,0,-5.687,-5.6893,-5.7081,-5.6991,-5.7014,-5.7031,-5.7087,-5.7087,-5.7119,-5.7142,-5.7144,-5.7109,-5.7169,-5.7186,-5.73,-5.7373,-5.7234,-5.7241,-5.7599,-5.7607,-5.7614,-5.7717,0,0,0,0,0,0,-5.6863,-5.6892,-5.6949,-5.6993,-5.7019,-5.7184,-5.7091,-5.7092,-5.7134,-5.7125,-5.7171,-5.7174,-5.7167,-5.7288,-5.7308,-5.7382,-5.7248,-5.7592,-5.7602,-5.7612,-5.7707,-5.7728,-5.7745,0,0,0,0,0,-5.6854,-5.6973,-5.6952,-5.6976,-5.7091,-5.7188,-5.7202,-5.7194,-5.714,-5.7197,-5.7211,-5.7173,-5.7361,-5.73,-5.7322,-5.74,-5.7588,-5.76,-5.7611,-5.7699,-5.7724,-5.7744,0,0,0,0,0,0,-5.6934,-5.6978,-5.6956,-5.7093,-5.7138,-5.7176,-5.7247,-5.722,-5.7279,-5.7268,-5.7253,-5.7264,-5.7383,-5.7402,-5.7333,-5.7542,-5.7466,-5.7482,-5.7525,-5.7549,-5.7567,-5.756,-5.7255,0,0,0,0,0,-5.6969,-5.7046,-5.7079,-5.7197,-5.7221,-5.723,-5.7272,-5.7262,-5.7307,-5.7324,-5.7347,-5.739,-5.7459,-5.7505,-5.7569,-5.7709,-5.7718,-5.7773,-5.7792,-5.7807,-5.7822,-5.7896,-5.7921,-5.7655,-5.7654,-5.7654,0,0,-5.7039,-5.7073,-5.7122,-5.7214,-5.7247,-5.7326,-5.7247,-5.7333,-5.7391,-5.7337,-5.7446,-5.7465,-5.7511,-5.7639,-5.7696,-5.7659,-5.7897,-5.7822,-5.7834,-5.784,-5.7911,-5.7936,-5.7958,-5.7662,-5.7661,-5.766,0,0,-5.7208,-5.7242,-5.7344,-5.7379,-5.7431,-5.7437,-5.7461,-5.7504,-5.7515,-5.7625,-5.7586,-5.7653,-5.7772,-5.7807,-5.784,-5.8022,-5.7988,-5.8043,-5.8141,-5.8213,-5.8234,-5.8253,-5.8317,-5.834,-5.8057,-5.8057,-5.8058,0,-5.7289,-5.7409,-5.7399,-5.7489,-5.753,-5.7486,-5.7588,-5.7622,-5.7691,-5.772,-5.7677,-5.7826,-5.7854,-5.7989,-5.8033,-5.8061,-5.8087,-5.8038,-5.8232,-5.8251,-5.8268,-5.8329,-5.8353,-5.8064,-5.8063,-5.8062,-5.8062,0,-5.7505,-5.7588,-5.7663,-5.7734,-5.7783,-5.7879,-5.7881,-5.7931,-5.7916,-5.7926,-5.8037,-5.807,-5.814,-5.8171,-5.8156,-5.8303,-5.8279,-5.8235,-5.8158,-5.83,-5.8357,-5.838,-5.8073,-5.8071,-5.8069,-5.8067,0,0,-5.7728,-5.7793,-5.7821,-5.7852,-5.7906,-5.7969,-5.8061,-5.8132,-5.8175,-5.8224,-5.83,-5.8401,-5.8361,-5.8399,-5.8387,-5.8451,-5.8592,-5.8399,-5.84,-5.8434,-5.8755,-5.8788,-5.8816,-5.857,-5.8574,-5.8578,-5.8751,0,-5.79,-5.8065,-5.8058,-5.821,-5.8286,-5.8245,-5.8325,-5.8366,-5.8377,-5.844,-5.8451,-5.8524,-5.8465,-5.8488,-5.8549,-5.8562,-5.8657,-5.855,-5.8639,-5.8642,-5.8629,-5.8845,-5.8881,-5.9043,-5.8773,-5.8777,-5.878,0,-5.8124,-5.8183,-5.8343,-5.8386,-5.8417,-5.849,-5.8553,-5.8616,-5.866,-5.8663,-5.8705,-5.8683,-5.8774,-5.8695,-5.8819,-5.8747,-5.8782,-5.8794,-5.88,-5.8808,-5.872,-5.8859,-5.9094,-5.9118,-5.8815,-5.8812,-5.881,0,-5.8271,-5.839,-5.8501,-5.8529,-5.8581,-5.8633,-5.8657,-5.8696,-5.8739,-5.8794,-5.8821,-5.8885,-5.892,-5.8968,-5.8963,-5.8906,-5.9089,-5.901,-5.9093,-5.9093,-5.9133,-5.9131,-5.9378,-5.9157,-5.9156,-5.9156,-5.9155,0,-5.8464,-5.8563,-5.8568,-5.8636,-5.8746,-5.8736,-5.8844,-5.8862,-5.8897,-5.8967,-5.8934,-5.8999,-5.8989,-5.9054,-5.905,-5.9153,-5.9168,-5.9172,-5.917,-5.9175,-5.9175,-5.9198,-5.9187,-5.9162,-5.9161,-5.916,-5.9158,0,-5.8647,-5.8654,-5.8773,-5.8813,-5.8825,-5.8904,-5.8937,-5.9,-5.9008,-5.9096,-5.9116,-5.9128,-5.9202,-5.9202,-5.9286,-5.9283,-5.9409,-5.9394,-5.9396,-5.9392,-5.9475,-5.9468,-5.9746,-5.9781,-5.9538,-5.954,-5.9542,0,-5.877,-5.8846,-5.8894,-5.894,-5.8967,-5.904,-5.9084,-5.9076,-5.9123,-5.9179,-5.9235,-5.9307,-5.9364,-5.9484,-5.9499,-5.9562,-5.9548,-5.9641,-5.9558,-5.956,-5.9549,-5.9545,-5.9552,-5.9658,-5.9661,-5.9663,-5.9665,0,-5.8987,-5.8987,-5.9053,-5.912,-5.9174,-5.9225,-5.9273,-5.9311,-5.9308,-5.9362,-5.9439,-5.9483,-5.957,-5.9641,-5.9702,-5.9724,-5.9694,-5.9691,-5.9713,-5.972,-5.9717,-5.9719,-5.944,-5.9685,-5.9683,-5.9681,-5.968,-5.9679,-5.9144,-5.9209,-5.9254,-5.9328,-5.9363,-5.9408,-5.947,-5.9486,-5.9551,-5.9623,-5.9613,-5.9699,-5.9739,-5.9819,-5.9846,-5.991,-5.9877,-5.991,-5.9919,-5.9927,-5.9936,-5.9707,-5.9921,-5.9921,-5.992,-5.992,-5.9919,0,-5.9359,-5.9386,-5.9454,-5.9523,-5.9581,-5.9549,-5.96,-5.965,-5.9726,-5.9767,-5.9824,-5.9912,-5.998,-6.0,-6.0066,-6.0114,-6.0102,-6.0131,-6.0127,-6.0133,-5.9962,-5.9936,-6.014,-6.014,-6.014,-6.014,-6.014,-6.014,-5.9478,-5.9587,-5.9592,-5.9718,-5.9743,-5.9828,-5.986,-5.99,-5.9933,-6.0033,-6.0091,-6.0104,-6.0136,-6.0204,-6.0264,-6.0268,-6.0293,-6.0329,-6.0327,-6.0167,-6.0145,-6.0124,-6.0099,-6.0335,-6.0335,-6.0492,-6.0494,-6.0495]}]]